Regional Weather Roundup
Issued by NWS Newport/Morehead, NC

Current Version | Previous Version | Graphics & Text | Print | Product List | Glossary Off
Versions: 1 2 3 4 5 6 7 8 9 10 11 12 13 14 15 16 17 18 19 20 21 22 23 24 25 26 27 28 29 30 31 32 33 34 35 36 37 38 39 40 41 42 43 44 45 46 47 48 49 50

000
ASUS42 KMHX 231910
RWRMHX
WEATHER ROUNDUP FOR EASTERN NORTH CAROLINA
NATIONAL WEATHER SERVICE NEWPORT/MOREHEAD CITY NC
300 PM EDT THU OCT 23 2014

NOTE: "FAIR" INDICATES FEW OR NO CLOUDS BELOW 12,000 FEET
WITH NO SIGNIFICANT WEATHER AND/OR OBSTRUCTIONS TO VISIBILITY

NCZ015>017-031-032-045>047-102-103-232000-
NORTH COAST

CITY           SKY/WX    TMP DP  RH WIND       PRES   REMARKS
EDENTON        SUNNY     66  47  50 NW13G22   29.87S
ELIZABETH CITY MOSUNNY   68  48  48 NW16G24   29.85F
KITTY HAWK     PTCLDY    64  48  55 W12G20    29.83F
MANTEO         SUNNY     64  47  55 W12G20    29.85F

$$

NCZ045>047-081-094-103-104-232000-
CENTRAL COAST

CITY           SKY/WX    TMP DP  RH WIND       PRES   REMARKS
FRISCO         SUNNY     64  48  56 NW9G17    29.86F
SWANQUARTER      N/A     66 N/A N/A NW17      29.85R

$$

NCZ095-097-098-100-101-232000-
SOUTHERN COAST

CITY           SKY/WX    TMP DP  RH WIND       PRES   REMARKS
BEAUFORT       SUNNY     68  47  46 NW15      29.89F
CEDAR ISLAND     N/A     66 N/A N/A W13G18    29.91S
JACKSONVILLE   SUNNY     68  43  40 W16G22    29.90F
PINEY ISLAND   CLEAR     69  45  41 W14G22    29.88F
WILMINGTON     SUNNY     69  42  37 W15G21    29.92F


$$

NCZ011>013-027>030-043-044-078>080-089-090>093-098-232000-
COASTAL PLAIN

CITY           SKY/WX    TMP DP  RH WIND       PRES   REMARKS
AHOSKIE        SUNNY     65  46  50 NW8       29.89S
CLINTON        SUNNY     68  47  46 W9        29.93F
ELIZABETHTOWN  SUNNY     68  41  37 W10       29.94F
GOLDSBORO      SUNNY     69  49  49 W10       29.90F
GREENVILLE     SUNNY     68  45  42 W9G16     29.92F
HAVELOCK       SUNNY     68  44  42 W14G20    29.90F
KENANSVILLE    SUNNY     67  43  41 NW12      29.93F
KINSTON        SUNNY     68  45  42 NW8       29.91F
NEW BERN       SUNNY     69  44  40 NW13      29.90F
RICHLANDS      SUNNY     66  43  42 NW10G16   29.91F
ROCKY MOUNT    SUNNY     69  45  41 W12G17    29.91F
WASHINGTON     SUNNY     66  46  49 NW12G17   29.89F
WHITEVILLE     SUNNY     68  42  38 NW8       29.95F

$$

AMZ130-135-150-152-154-156-158-170-250-252-270-ANZ085-086-088-633-658-670-232000-
MARINE OBSERVATIONS

STATION/POSITION TIME  TEMP    WIND        PRES    WAVE   SWELL
                       AIR SEA DIR/SP/G            HT/PER HT/PER
                 (UTC) (F)     (DEG/KT/KT) (MB)    (FT/S) (FT/S)
CHESAPEAKE LIGHT 1800   59     320/ 26/ 29 1010.4
64 E VA BEACH    1900   61 67  320/ 25/ 29 1008.3    9/ 6   2/14
DUCK             1900   63 67  310/ 12/ 17 1009.5
2 E DUCK         1900                        N/A     5/ 6
10 NE DUCK       1900      69                N/A     6/ 7   2/11
OREGON INLET     1900   62 63  290/ 11/ 18 1010.6
13E OREGON INLT  1900      70                N/A     7/ 8   2/11
HATTERAS CG      1900   63 63  280/ 16/ 19 1011.5
DIAMOND BUOY     1900   63     290/ 17/ 21 1011.4    5/ 6   3/ 9
17 S OCRACOKE    NOT AVBL
CAPE LOOKOUT     1800   63     260/ 15/ 17 1012.5
BEAUFORT LAB     1900   67 66  310/  6/ 12 1011.5
30 SE NEW RIVER  1900   64 75  280/ 16/ 19 1012.3    2/ 4   2/ 9
5 SE WRIGHTSVLE  1900   64 72  290/ 12/ 14   N/A
225 S CAPE HAT   1827   71 78  300/ 16/ 19 1013.8    8/ 9   5/ 9
41 SE CHARLESTON 1900   63 78  310/ 10/ 12 1015.7    3/ 5   2/ 5

$$



USA.gov is the U.S. government's official web portal to all federal, state and local government web resources and services.